QPF
0.00 0.00 0.00 0.00 0.00 0.00 0.00 0.00 0.00 0.00 0.00 0.00 0.00 0.00 0.00 0.00 0.00 0.00 0.00 0.00 0.00 0.01 0.00 0.00 0.00 0.00 0.00 0.00 0.00 0.00 0.00 0.00
0.00 0.00 0.00 0.00 0.00 0.00 0.00 0.00 0.00 0.00 0.00 0.00 0.00 0.00 0.00 0.00 0.00 0.00 0.00 0.00 0.00 0.03 0.01 0.00 0.00 0.00 0.00 0.00 0.00 0.00 0.00 0.00
0.00 0.00 0.00 0.00 0.00 0.00 0.00 0.00 0.00 0.00 0.00 0.00 0.00 0.00 0.00 0.00 0.00 0.00 0.00 0.00 0.00 0.00 0.00 0.00 0.00 0.00 0.00 0.00 0.00 0.00 0.00 0.00
0.00 0.00 0.00 0.00 0.00 0.00 0.00 0.00 0.00 0.00 0.00 0.00 0.00 0.00 0.00 0.00 0.00 0.00 0.00 0.00 0.00 0.00 0.00 0.00 0.02 0.01 0.00 0.00 0.00 0.00 0.00 0.00
0.00 0.00 0.00 0.00 0.00 0.00 0.00 0.00 0.00 0.00 0.00 0.00 0.00 0.00 0.00 0.00 0.00 0.00 0.00 0.00 0.00 0.00 0.00 0.00 0.00 0.00 0.00 0.00 0.00 0.00 0.00 0.00
0.00 0.00 0.00 0.00 0.00 0.00 0.00 0.00 0.00 0.00 0.00 0.00 0.00 0.00 0.00 0.00 0.00 0.00 0.00 0.00 0.00 0.00 0.00 0.00 0.00 0.00 0.01 0.01 0.01 0.00 0.00 0.00
0.00 0.00 0.00 0.00 0.00 0.00 0.00 0.00 0.00 0.00 0.00 0.00 0.00 0.00 0.00 0.00 0.00 0.00 0.00 0.00 0.00 0.00 0.00 0.00 0.00 0.00 0.03 0.04 0.03 0.02 0.00 0.00
0.00 0.00 0.00 0.00 0.00 0.00 0.00 0.00 0.00 0.00 0.00 0.00 0.00 0.00 0.00 0.00 0.00 0.00 0.00 0.00 0.00 0.00 0.00 0.00 0.00 0.04 0.04 0.04 0.02 0.01 0.00 0.00
0.00 0.00 0.00 0.00 0.00 0.00 0.00 0.00 0.00 0.00 0.00 0.00 0.00 0.00 0.00 0.00 0.00 0.00 0.00 0.00 0.00 0.00 0.00 0.00 0.00 0.02 0.02 0.00 0.01 0.01 0.01 0.00
0.00 0.00 0.00 0.02 0.02 0.03 0.01 0.00 0.00 0.00 0.00 0.00 0.00 0.00 0.00 0.00 0.00 0.00 0.00 0.00 0.01 0.00 0.01 0.03 0.02 0.01 0.01 0.01 0.01 0.01 0.00 0.00
0.00 0.00 0.00 0.01 0.02 0.06 0.07 0.02 0.00 0.00 0.00 0.00 0.00 0.00 0.00 0.00 0.00 0.00 0.00 0.00 0.01 0.04 0.07 0.08 0.06 0.03 0.02 0.03 0.02 0.01 0.01 0.00
0.00 0.00 0.00 0.00 0.02 0.01 0.05 0.06 0.04 0.02 0.00 0.00 0.00 0.00 0.00 0.00 0.00 0.00 0.04 0.05 0.07 0.10 0.12 0.10 0.05 0.03 0.03 0.01 0.01 0.00 0.00 0.00
0.00 0.00 0.00 0.00 0.00 0.00 0.01 0.06 0.07 0.12 0.07 0.01 0.00 0.00 0.00 0.00 0.01 0.02 0.06 0.13 0.16 0.15 0.10 0.07 0.06 0.05 0.03 0.01 0.00 0.00 0.00 0.00
0.00 0.00 0.00 0.00 0.00 0.00 0.00 0.00 0.03 0.08 0.08 0.04 0.01 0.02 0.01 0.01 0.02 0.05 0.14 0.16 0.10 0.05 0.05 0.05 0.05 0.05 0.03 0.01 0.00 0.00 0.00 0.00
0.00 0.00 0.00 0.00 0.00 0.00 0.00 0.00 0.00 0.00 0.00 0.01 0.01 0.01 0.01 0.02 0.04 0.09 0.12 0.09 0.03 0.01 0.05 0.06 0.05 0.04 0.02 0.00 0.00 0.00 0.00 0.00
0.00 0.00 0.00 0.00 0.00 0.00 0.00 0.00 0.00 0.00 0.00 0.00 0.00 0.00 0.03 0.05 0.10 0.17 0.16 0.10 0.06 0.03 0.02 0.01 0.01 0.01 0.01 0.00 0.00 0.00 0.00 0.00
0.00 0.00 0.00 0.00 0.00 0.00 0.00 0.00 0.00 0.00 0.00 0.00 0.00 0.00 0.01 0.02 0.05 0.06 0.07 0.06 0.05 0.03 0.01 0.01 0.01 0.01 0.01 0.01 0.00 0.00 0.00 0.00
0.00 0.00 0.00 0.00 0.00 0.00 0.00 0.00 0.00 0.00 0.00 0.00 0.00 0.01 0.01 0.02 0.03 0.03 0.02 0.01 0.02 0.01 0.01 0.01 0.01 0.02 0.02 0.00 0.00 0.00 0.00 0.00
0.00 0.00 0.00 0.00 0.00 0.00 0.00 0.00 0.00 0.00 0.00 0.01 0.01 0.01 0.01 0.00 0.00 0.01 0.00 0.00 0.00 0.00 0.01 0.01 0.02 0.01 0.01 0.00 0.00 0.00 0.00 0.00
MSLP
1010.87 1011.34 1011.57 1011.85 1012.00 1012.44 1012.62 1012.94 1013.09 1013.68 1014.12 1014.69 1014.98 1015.28 1015.39 1015.53 1016.30 1016.83 1017.00 1017.31 1017.91 1018.19 1018.68 1019.43 1019.78 1020.36 1021.04 1021.15 1021.66 1022.35 1022.72 1023.16
1010.96 1011.38 1011.68 1011.97 1012.18 1012.59 1012.90 1013.21 1013.44 1013.83 1014.48 1014.94 1015.22 1015.34 1015.37 1015.83 1016.43 1016.82 1017.02 1017.27 1017.75 1018.25 1018.97 1019.32 1019.77 1020.17 1020.57 1021.12 1021.88 1022.37 1022.97 1023.02
1010.54 1011.30 1011.57 1012.16 1012.51 1012.79 1013.10 1013.44 1013.87 1014.31 1014.63 1014.79 1015.03 1015.40 1015.86 1016.60 1016.49 1016.73 1016.71 1017.22 1017.53 1018.10 1018.48 1019.09 1019.55 1019.89 1020.68 1020.94 1021.26 1022.44 1022.81 1022.94
1010.49 1011.02 1011.60 1011.74 1012.20 1012.76 1013.06 1013.59 1014.02 1014.50 1014.83 1015.08 1015.69 1016.08 1016.50 1016.77 1016.55 1016.95 1017.01 1016.91 1017.13 1017.66 1018.32 1018.54 1019.23 1019.74 1020.18 1020.31 1020.79 1021.35 1022.35 1022.90
1009.98 1010.56 1011.05 1011.65 1012.29 1012.68 1012.69 1013.29 1013.89 1014.60 1015.27 1015.52 1015.64 1016.08 1016.47 1016.50 1016.56 1016.75 1016.73 1016.55 1016.77 1017.14 1018.00 1018.57 1018.91 1019.16 1019.66 1019.86 1020.11 1020.72 1021.27 1022.06
1009.27 1009.89 1010.90 1011.44 1012.12 1012.40 1012.77 1013.18 1013.43 1014.18 1014.77 1015.05 1015.23 1015.70 1015.99 1016.07 1016.16 1016.22 1016.33 1016.56 1016.91 1017.21 1017.58 1018.29 1018.32 1018.48 1018.98 1019.29 1019.57 1020.25 1020.36 1021.20
1009.10 1009.55 1010.39 1011.00 1011.39 1011.94 1012.31 1012.42 1012.91 1013.45 1014.06 1014.57 1014.88 1015.17 1015.46 1015.62 1015.81 1015.98 1016.21 1016.60 1016.86 1016.95 1016.99 1017.32 1017.42 1017.91 1018.46 1018.74 1019.05 1019.79 1020.21 1020.44
1008.76 1009.09 1009.56 1010.15 1010.82 1011.59 1011.96 1012.56 1012.37 1012.85 1013.62 1013.91 1014.29 1014.50 1014.98 1015.11 1015.20 1015.34 1015.48 1015.83 1015.81 1015.65 1016.14 1016.58 1017.03 1017.28 1017.61 1017.94 1018.73 1019.43 1019.90 1020.20
1007.49 1008.09 1008.88 1009.32 1009.80 1010.38 1011.04 1011.29 1011.44 1012.18 1012.87 1013.24 1013.75 1013.93 1013.99 1014.26 1014.23 1014.34 1014.55 1014.68 1014.84 1015.25 1015.49 1015.80 1016.40 1016.63 1017.07 1017.63 1018.27 1018.90 1019.36 1020.13
1006.14 1007.03 1007.58 1008.35 1008.83 1009.19 1009.82 1010.44 1011.00 1011.71 1012.28 1012.78 1013.06 1013.18 1013.30 1013.51 1013.45 1013.64 1013.90 1014.31 1014.61 1014.76 1014.85 1015.18 1015.58 1015.95 1016.45 1017.12 1017.86 1018.36 1018.89 1019.31
1005.48 1006.02 1006.54 1006.93 1007.74 1008.69 1009.46 1010.10 1010.68 1011.27 1011.71 1012.03 1012.22 1012.32 1012.66 1012.95 1013.15 1013.22 1013.39 1013.61 1014.09 1014.30 1014.51 1014.83 1015.17 1015.44 1016.01 1016.65 1017.45 1017.95 1018.57 1018.96
1004.10 1004.47 1005.11 1005.84 1007.10 1007.65 1008.43 1009.18 1009.82 1010.33 1010.57 1010.95 1011.32 1011.40 1011.82 1012.15 1012.26 1012.41 1012.70 1013.18 1013.44 1013.74 1014.22 1014.68 1014.91 1015.15 1015.07 1016.24 1016.43 1016.91 1017.56 1018.36
1002.95 1003.48 1004.19 1005.18 1005.77 1006.71 1007.22 1008.07 1008.44 1008.70 1009.05 1009.81 1009.82 1010.23 1010.76 1011.05 1011.16 1011.53 1012.27 1012.70 1012.76 1013.03 1013.45 1014.12 1013.73 1014.24 1014.85 1015.22 1015.88 1016.35 1016.87 1017.60
1002.53 1003.26 1003.78 1004.09 1004.74 1005.52 1006.09 1006.70 1007.08 1007.90 1008.49 1008.61 1008.95 1009.25 1009.56 1009.75 1010.24 1010.87 1011.28 1011.84 1012.88 1012.28 1012.04 1013.05 1013.13 1014.09 1014.51 1014.58 1015.01 1015.51 1016.08 1016.72
1001.75 1002.34 1002.78 1003.03 1003.60 1004.18 1004.71 1005.10 1005.61 1006.38 1007.10 1007.54 1007.95 1008.12 1008.20 1008.59 1009.45 1010.29 1010.81 1011.14 1011.42 1011.08 1012.40 1012.95 1012.91 1013.27 1013.94 1014.55 1014.99 1015.53 1015.96 1016.43
1001.45 1001.63 1001.86 1002.09 1002.82 1003.20 1003.71 1004.09 1004.71 1005.22 1005.86 1006.47 1006.63 1007.23 1007.76 1008.44 1009.00 1009.48 1009.85 1009.99 1010.17 1010.58 1011.45 1011.88 1012.34 1012.86 1013.48 1014.14 1014.66 1015.28 1015.73 1016.10
1000.76 1000.84 1001.32 1001.62 1001.97 1002.32 1002.79 1003.26 1003.64 1004.39 1005.04 1005.68 1006.41 1006.93 1007.63 1008.08 1008.54 1009.07 1009.69 1010.04 1010.43 1010.73 1011.05 1011.45 1012.07 1012.43 1012.86 1013.71 1014.30 1015.04 1015.65 1016.77
1000.09 1000.57 1000.80 1000.97 1001.68 1002.23 1002.86 1003.58 1004.03 1004.50 1005.34 1006.16 1006.80 1007.23 1007.77 1008.20 1008.61 1009.11 1009.63 1010.03 1010.39 1010.75 1011.16 1011.38 1011.73 1012.40 1013.23 1013.81 1014.22 1015.02 1015.81 1016.41
1000.27 1000.60 1001.41 1002.13 1002.56 1003.02 1003.45 1004.02 1004.56 1005.15 1005.78 1006.48 1007.03 1007.49 1007.91 1008.36 1008.73 1009.19 1009.62 1010.04 1010.46 1010.89 1011.35 1011.79 1012.23 1012.92 1013.33 1014.29 1014.44 1015.43 1016.73 1017.46
Thickness
5620 5614 5613 5612 5612 5612 5613 5612 5612 5609 5609 5607 5608 5607 5610 5612 5607 5605 5606 5605 5602 5601 5599 5592 5588 5588 5584 5586 5586 5583 5581 5578
5622 5614 5609 5608 5611 5609 5607 5607 5608 5607 5604 5602 5603 5604 5608 5605 5602 5600 5600 5599 5597 5595 5588 5588 5587 5588 5587 5585 5582 5579 5575 5575
5630 5619 5613 5605 5604 5605 5605 5603 5601 5599 5597 5600 5599 5599 5598 5593 5597 5596 5597 5595 5594 5590 5591 5588 5588 5587 5582 5582 5583 5574 5571 5570
5633 5625 5617 5615 5611 5607 5606 5603 5600 5595 5594 5595 5591 5590 5588 5588 5593 5589 5589 5592 5593 5591 5588 5591 5587 5584 5584 5585 5582 5579 5571 5566
5640 5632 5626 5620 5613 5611 5612 5608 5602 5596 5586 5587 5589 5587 5587 5590 5590 5592 5593 5595 5596 5594 5589 5587 5586 5587 5585 5584 5583 5580 5575 5570
5643 5638 5628 5624 5619 5616 5613 5610 5609 5601 5595 5593 5594 5591 5590 5590 5594 5597 5598 5594 5590 5591 5591 5586 5588 5588 5585 5584 5582 5579 5578 5569
5644 5640 5635 5629 5626 5622 5621 5621 5617 5610 5604 5599 5597 5596 5595 5597 5596 5596 5593 5589 5589 5590 5593 5591 5590 5587 5584 5583 5582 5576 5571 5568
5643 5641 5639 5635 5629 5622 5621 5617 5619 5614 5605 5603 5598 5599 5595 5596 5598 5598 5598 5595 5597 5601 5595 5591 5589 5588 5586 5583 5578 5572 5567 5562
5652 5649 5643 5641 5638 5634 5629 5629 5628 5620 5612 5608 5605 5604 5605 5602 5604 5605 5604 5604 5603 5598 5596 5593 5588 5586 5583 5579 5575 5568 5563 5555
5660 5655 5651 5646 5644 5642 5637 5634 5629 5620 5614 5610 5608 5609 5608 5605 5608 5609 5607 5602 5599 5599 5598 5595 5591 5586 5581 5576 5570 5564 5559 5553
5662 5660 5656 5653 5647 5640 5635 5628 5623 5618 5614 5611 5611 5612 5609 5606 5607 5606 5604 5603 5598 5596 5593 5590 5586 5583 5576 5571 5564 5558 5551 5546
5669 5668 5664 5658 5646 5643 5636 5630 5623 5619 5617 5615 5613 5614 5610 5608 5608 5606 5603 5598 5594 5591 5585 5580 5577 5576 5568 5562 5563 5558 5550 5540
5674 5671 5665 5657 5652 5644 5641 5633 5630 5628 5624 5618 5620 5619 5615 5612 5611 5607 5600 5595 5593 5587 5582 5577 5580 5576 5571 5564 5557 5551 5545 5536
5671 5668 5662 5660 5656 5648 5644 5639 5636 5630 5625 5624 5623 5622 5619 5617 5612 5606 5601 5596 5583 5584 5582 5577 5576 5569 5563 5561 5555 5548 5540 5532
5668 5665 5666 5666 5662 5656 5651 5649 5645 5639 5635 5631 5628 5627 5625 5621 5611 5602 5597 5591 5587 5584 5570 5567 5572 5567 5559 5551 5546 5538 5530 5523
5664 5666 5668 5669 5664 5661 5657 5654 5649 5645 5641 5636 5634 5629 5622 5615 5609 5604 5599 5596 5591 5584 5577 5571 5566 5558 5552 5545 5538 5529 5521 5514
5666 5668 5668 5666 5665 5665 5662 5658 5654 5648 5644 5638 5629 5623 5617 5612 5606 5599 5591 5586 5582 5576 5572 5566 5557 5553 5547 5535 5528 5519 5510 5497
5669 5666 5669 5670 5662 5658 5653 5647 5643 5640 5632 5625 5618 5614 5607 5602 5597 5591 5584 5577 5571 5566 5561 5556 5551 5542 5530 5524 5517 5508 5495 5484
5664 5661 5656 5648 5647 5642 5639 5635 5630 5625 5619 5613 5607 5603 5598 5592 5588 5582 5574 5568 5561 5554 5547 5541 5535 5526 5519 5507 5501 5490 5478 5465